TimeEST,TemperatureF,Dew PointF,Humidity,Sea Level PressureIn,VisibilityMPH,Wind Direction,Wind SpeedMPH,Gust SpeedMPH,PrecipitationIn,Events,Conditions,WindDirDegrees,DateUTC
12:53 AM,39.0,32.0,76,29.79,10.0,SE,4.6,-,N/A,,Overcast,140,2012-12-19 05:53:00
1:53 AM,37.9,32.0,79,29.80,10.0,Calm,Calm,-,N/A,,Overcast,0,2012-12-19 06:53:00
2:53 AM,37.0,30.0,76,29.81,10.0,SW,6.9,-,N/A,,Clear,220,2012-12-19 07:53:00
3:53 AM,41.0,30.9,67,29.83,10.0,WSW,11.5,19.6,N/A,,Partly Cloudy,250,2012-12-19 08:53:00
4:53 AM,42.1,32.0,67,29.86,10.0,WSW,10.4,-,N/A,,Overcast,250,2012-12-19 09:53:00
5:53 AM,42.1,33.1,70,29.88,10.0,WSW,9.2,-,N/A,,Overcast,250,2012-12-19 10:53:00
6:42 AM,42.8,33.8,70,29.91,10.0,WSW,12.7,-,N/A,,Overcast,240,2012-12-19 11:42:00
6:53 AM,43.0,33.1,68,29.92,10.0,WSW,11.5,-,N/A,,Overcast,250,2012-12-19 11:53:00
7:53 AM,43.0,34.0,71,29.95,10.0,WSW,6.9,-,N/A,,Overcast,250,2012-12-19 12:53:00
8:53 AM,43.0,34.0,71,29.97,10.0,WSW,8.1,-,N/A,,Overcast,240,2012-12-19 13:53:00
9:14 AM,42.8,33.8,70,29.98,10.0,WSW,10.4,16.1,N/A,,Overcast,250,2012-12-19 14:14:00
9:53 AM,43.0,34.0,71,30.01,10.0,West,11.5,-,N/A,,Overcast,260,2012-12-19 14:53:00
10:21 AM,42.8,33.8,70,30.02,10.0,WSW,9.2,-,N/A,,Overcast,250,2012-12-19 15:21:00
10:53 AM,43.0,35.1,74,30.03,10.0,WSW,9.2,-,N/A,,Overcast,240,2012-12-19 15:53:00
11:53 AM,44.1,36.0,73,30.03,9.0,West,6.9,-,N/A,,Overcast,270,2012-12-19 16:53:00
12:53 PM,44.1,36.0,73,30.04,9.0,WSW,6.9,-,N/A,,Overcast,250,2012-12-19 17:53:00
1:04 PM,44.6,35.6,71,30.04,9.0,WSW,10.4,-,N/A,,Overcast,250,2012-12-19 18:04:00
1:53 PM,44.1,36.0,73,30.05,10.0,West,5.8,-,N/A,,Overcast,260,2012-12-19 18:53:00
2:02 PM,44.6,35.6,71,30.05,10.0,West,5.8,-,N/A,,Overcast,260,2012-12-19 19:02:00
2:37 PM,44.6,35.6,71,30.05,10.0,WSW,5.8,-,N/A,,Overcast,250,2012-12-19 19:37:00
2:53 PM,44.1,36.0,73,30.06,10.0,WSW,5.8,-,N/A,,Overcast,240,2012-12-19 19:53:00
3:53 PM,44.1,36.0,73,30.08,10.0,SSW,8.1,-,N/A,,Overcast,210,2012-12-19 20:53:00
4:53 PM,44.1,35.1,71,30.10,10.0,SW,5.8,-,N/A,,Overcast,220,2012-12-19 21:53:00
5:53 PM,42.1,34.0,73,30.11,10.0,SW,3.5,-,N/A,,Overcast,230,2012-12-19 22:53:00
6:53 PM,39.9,34.0,79,30.13,10.0,Calm,Calm,-,N/A,,Mostly Cloudy,0,2012-12-19 23:53:00
7:53 PM,37.9,34.0,86,30.14,9.0,Calm,Calm,-,N/A,,Mostly Cloudy,0,2012-12-20 00:53:00
8:53 PM,37.0,33.1,86,30.15,9.0,Calm,Calm,-,N/A,,Clear,0,2012-12-20 01:53:00
9:53 PM,34.0,30.9,89,30.13,7.0,Calm,Calm,-,N/A,,Clear,0,2012-12-20 02:53:00
10:53 PM,34.0,32.0,92,30.13,7.0,Calm,Calm,-,N/A,,Clear,0,2012-12-20 03:53:00
11:53 PM,36.0,33.1,89,30.12,7.0,Calm,Calm,-,N/A,,Clear,0,2012-12-20 04:53:00